Time,TemperatureF,DewpointF,PressureIn,WindDirection,WindDirectionDegrees,WindSpeedMPH,WindSpeedGustMPH,Humidity,HourlyPrecipIn,Conditions,Clouds,dailyrainin,SolarRadiationWatts/m^2,SoftwareType,DateUTC
2013-08-20 00:13:00,74.0,55.0,-100.00,SSE,165,1.0,4.0,51,0.00,,,0.00,0.000000,,2013-08-20 04:13:00,
2013-08-20 00:23:00,74.0,55.0,-100.00,SSE,165,1.0,4.0,51,0.00,,,0.00,0.000000,,2013-08-20 04:23:00,
2013-08-20 00:33:00,74.0,55.0,-100.00,SSE,165,1.0,4.0,51,0.00,,,0.00,0.000000,,2013-08-20 04:33:00,
2013-08-20 01:12:00,74.0,56.0,-100.00,NNW,332,1.0,3.0,54,0.00,,,0.00,0.000000,,2013-08-20 05:12:00,
2013-08-20 01:22:00,74.0,56.0,-100.00,NNW,332,1.0,3.0,54,0.00,,,0.00,0.000000,,2013-08-20 05:22:00,
2013-08-20 01:32:00,74.0,56.0,-100.00,NNW,332,1.0,3.0,54,0.00,,,0.00,0.000000,,2013-08-20 05:32:00,
2013-08-20 02:11:00,74.0,55.0,-100.00,West,270,2.0,6.0,51,0.00,,,0.00,0.000000,,2013-08-20 06:11:00,
2013-08-20 02:21:00,74.0,55.0,-100.00,West,270,2.0,6.0,51,0.00,,,0.00,0.000000,,2013-08-20 06:21:00,
2013-08-20 02:31:00,74.0,55.0,-100.00,West,270,2.0,6.0,51,0.00,,,0.00,0.000000,,2013-08-20 06:31:00,
2013-08-20 03:11:00,73.0,54.0,-100.00,NW,313,3.0,5.0,51,0.00,,,0.00,0.000000,,2013-08-20 07:11:00,
2013-08-20 03:22:00,73.0,54.0,-100.00,NW,313,3.0,5.0,51,0.00,,,0.00,0.000000,,2013-08-20 07:22:00,
2013-08-20 03:32:00,73.0,54.0,-100.00,NW,313,3.0,5.0,51,0.00,,,0.00,0.000000,,2013-08-20 07:32:00,
2013-08-20 04:11:00,73.0,52.0,-100.00,WNW,301,3.0,7.0,48,0.00,,,0.00,0.000000,,2013-08-20 08:11:00,
2013-08-20 04:21:00,73.0,52.0,-100.00,WNW,301,3.0,7.0,48,0.00,,,0.00,0.000000,,2013-08-20 08:21:00,
2013-08-20 04:32:00,73.0,52.0,-100.00,WNW,301,3.0,7.0,48,0.00,,,0.00,0.000000,,2013-08-20 08:32:00,
2013-08-20 11:11:00,79.0,47.0,-100.00,NNW,340,3.0,7.0,32,-99.99,,,0.00,172.000000,,2013-08-20 15:11:00,
2013-08-20 11:22:00,79.0,47.0,-100.00,NNW,340,3.0,7.0,32,-99.99,,,0.00,172.000000,,2013-08-20 15:22:00,
2013-08-20 11:34:00,79.0,47.0,-100.00,NNW,340,3.0,7.0,32,-99.99,,,0.00,172.000000,,2013-08-20 15:34:00,
2013-08-20 11:35:00,82.0,51.0,-100.00,North,358,3.0,7.0,34,0.00,,,0.00,123.000000,,2013-08-20 15:35:00,
2013-08-20 12:15:00,82.0,51.0,-100.00,North,358,3.0,7.0,34,0.00,,,0.00,123.000000,,2013-08-20 16:15:00,
2013-08-20 12:30:00,-999.0,-99.9,-100.00,North,358,3.0,7.0,34,0.00,,,0.00,123.000000,,2013-08-20 16:30:00,
2013-08-20 13:12:00,85.0,49.0,-100.00,NW,319,3.0,10.0,29,0.00,,,0.00,50.000000,,2013-08-20 17:12:00,
2013-08-20 13:24:00,85.0,49.0,-100.00,NW,319,3.0,10.0,29,0.00,,,0.00,50.000000,,2013-08-20 17:24:00,
2013-08-20 13:34:00,85.0,49.0,-100.00,NW,319,3.0,10.0,29,0.00,,,0.00,50.000000,,2013-08-20 17:34:00,
2013-08-20 14:12:00,86.0,50.0,-100.00,East,96,6.0,11.0,29,0.00,,,0.00,0.000000,,2013-08-20 18:12:00,
2013-08-20 14:22:00,86.0,50.0,-100.00,East,96,6.0,11.0,29,0.00,,,0.00,0.000000,,2013-08-20 18:22:00,
2013-08-20 14:33:00,86.0,50.0,-100.00,East,96,6.0,11.0,29,0.00,,,0.00,0.000000,,2013-08-20 18:33:00,
2013-08-20 15:11:00,86.0,50.0,-100.00,East,89,5.0,14.0,29,0.00,,,0.00,0.000000,,2013-08-20 19:11:00,
2013-08-20 15:22:00,86.0,50.0,-100.00,East,89,5.0,14.0,29,0.00,,,0.00,0.000000,,2013-08-20 19:22:00,
2013-08-20 15:32:00,86.0,50.0,-100.00,East,89,5.0,14.0,29,0.00,,,0.00,0.000000,,2013-08-20 19:32:00,
2013-08-20 16:12:00,89.0,50.0,-100.00,SE,132,8.0,15.0,26,0.00,,,0.00,0.000000,,2013-08-20 20:12:00,
2013-08-20 16:22:00,89.0,50.0,-100.00,SE,132,8.0,15.0,26,0.00,,,0.00,0.000000,,2013-08-20 20:22:00,
2013-08-20 16:32:00,89.0,50.0,-100.00,SE,132,8.0,15.0,26,0.00,,,0.00,0.000000,,2013-08-20 20:32:00,
2013-08-20 17:11:00,88.0,48.0,-100.00,SE,137,6.0,13.0,25,0.00,,,0.00,0.000000,,2013-08-20 21:11:00,
2013-08-20 17:22:00,88.0,48.0,-100.00,SE,137,6.0,13.0,25,0.00,,,0.00,0.000000,,2013-08-20 21:22:00,
2013-08-20 17:34:00,88.0,48.0,-100.00,SE,137,6.0,13.0,25,0.00,,,0.00,0.000000,,2013-08-20 21:34:00,
2013-08-20 18:14:00,87.0,49.0,-100.00,SSE,149,4.0,12.0,27,0.00,,,0.00,0.000000,,2013-08-20 22:14:00,
2013-08-20 18:24:00,87.0,49.0,-100.00,SSE,149,4.0,12.0,27,0.00,,,0.00,0.000000,,2013-08-20 22:24:00,
2013-08-20 18:33:00,87.0,49.0,-100.00,SSE,149,4.0,12.0,27,0.00,,,0.00,0.000000,,2013-08-20 22:33:00,
2013-08-20 19:12:00,85.0,50.0,-100.00,NW,323,3.0,11.0,30,0.00,,,0.00,0.000000,,2013-08-20 23:12:00,
2013-08-20 19:22:00,85.0,50.0,-100.00,NW,323,3.0,11.0,30,0.00,,,0.00,0.000000,,2013-08-20 23:22:00,
2013-08-20 19:33:00,85.0,50.0,-100.00,NW,323,3.0,11.0,30,0.00,,,0.00,0.000000,,2013-08-20 23:33:00,
2013-08-20 20:12:00,84.0,53.0,-100.00,NNW,345,3.0,9.0,34,0.00,,,0.00,0.000000,,2013-08-21 00:12:00,
2013-08-20 20:22:00,84.0,53.0,-100.00,NNW,345,3.0,9.0,34,0.00,,,0.00,0.000000,,2013-08-21 00:22:00,
2013-08-20 20:32:00,84.0,53.0,-100.00,NNW,345,3.0,9.0,34,0.00,,,0.00,0.000000,,2013-08-21 00:32:00,
2013-08-20 21:11:00,83.0,47.0,-100.00,NW,314,4.0,12.0,28,0.00,,,0.00,0.000000,,2013-08-21 01:11:00,
2013-08-20 21:22:00,83.0,47.0,-100.00,NW,314,4.0,12.0,28,0.00,,,0.00,0.000000,,2013-08-21 01:22:00,
2013-08-20 21:32:00,83.0,47.0,-100.00,NW,314,4.0,12.0,28,0.00,,,0.00,0.000000,,2013-08-21 01:32:00,
2013-08-20 22:12:00,80.0,44.0,-100.00,NW,308,4.0,17.0,28,0.00,,,0.00,0.000000,,2013-08-21 02:12:00,
2013-08-20 22:22:00,80.0,44.0,-100.00,NW,308,4.0,17.0,28,0.00,,,0.00,0.000000,,2013-08-21 02:22:00,
2013-08-20 22:32:00,80.0,44.0,-100.00,NW,308,4.0,17.0,28,0.00,,,0.00,0.000000,,2013-08-21 02:32:00,
2013-08-20 22:35:00,81.0,45.0,-100.00,NW,309,7.0,12.0,28,0.00,,,0.00,0.000000,,2013-08-21 02:35:00,
2013-08-20 23:12:00,81.0,45.0,-100.00,NW,309,7.0,12.0,28,0.00,,,0.00,0.000000,,2013-08-21 03:12:00,
2013-08-20 23:23:00,81.0,45.0,-100.00,NW,309,7.0,12.0,28,0.00,,,0.00,0.000000,,2013-08-21 03:23:00,